#timestamp,LO_Frequency,Hit,StdDev 
1543305615.1,286047001.4,N
1543305635.9,286047004.2,N
1543305655.7,286047007.2,N
1543305675.5,286047007.4,N
1543305695.4,286047009.1,N
1543305715.2,286047008.4,N
1543305735.0,286047008.9,N
1543305735.9,286047008.9,N
1543305755.8,286047010.5,N
1543305775.6,286047011.5,N
1543305795.5,286047013.9,N
1543305815.3,286047012.8,N
1543305835.1,286047015.2,N
1543305855.9,286047013.5,N
1543305875.7,286047013.8,N
1543305895.5,286047013.8,N
1543305915.4,286047013.2,N
1543305935.2,286047013.4,N
1543305955.1,286047014.4,N
1543305956.0,286047014.4,N
1543305975.8,286047012.6,N
1543305995.6,286047014.9,N
1543306015.5,286047017.8,N
1543306035.3,286047019.8,N
1543306055.2,286047015.7,N
1543306075.9,286047016.3,N
1543306095.7,286047014.2,N
1543306115.6,286047017.6,N
1543306135.4,286047019.3,Y
1543306155.3,286047007.0,P
1543306175.1,286047005.4,N
1543306176.0,286047005.4,N
1543306195.8,286047002.5,N
1543306215.7,286047000.0,N
1543306235.5,286046999.8,N
1543306255.3,286047001.7,N
1543306275.2,286047001.3,N
1543306295.0,286047003.9,N
1543306295.9,286047003.9,N
1543306315.8,286046999.7,N
1543306335.6,286046998.4,N
1543306355.4,286046997.8,N
1543306375.3,286046996.1,N
1543306395.1,286046996.0,N
1543306415.9,286046999.5,N
1543306435.7,286046999.0,N
1543306455.5,286046997.8,N
1543306475.4,286046999.2,N
1543306495.2,286047002.8,N
1543306515.0,286047005.9,N
1543306516.0,286047005.9,N
1543306535.8,286047003.4,N
1543306555.6,286047005.3,N
1543306575.5,286047006.3,N
1543306595.3,286047007.8,N
1543306615.1,286047012.0,Y
1543306635.9,286047010.3,P
1543306655.7,286047010.8,N
1543306675.6,286047008.4,N
1543306695.4,286047004.9,N
1543306715.2,286047009.1,N
1543306735.1,286047006.9,N
1543306736.0,286047006.9,N
1543306755.8,286047005.9,N
1543306775.6,286047002.8,N
1543306795.5,286046998.6,N
1543306815.3,286046999.4,N
1543306835.1,286047000.4,N
1543306855.9,286047001.5,N
1543306875.7,286047007.5,N
1543306895.6,286047003.7,N
1543306915.4,286047004.2,N
1543306935.2,286047003.6,N
1543306955.1,286047005.8,N
1543306956.0,286047005.8,N
1543306975.8,286047005.8,N
1543306995.6,286047003.9,N
1543307015.5,286047005.5,N
1543307035.3,286047004.7,N
1543307055.2,286047005.9,N
1543307075.9,286047004.9,N
1543307095.7,286047006.3,N
1543307115.6,286047004.5,N
1543307135.4,286047006.6,N
1543307155.2,286047005.7,N
1543307175.1,286047005.3,N
1543307176.0,286047005.3,N
1543307195.8,286047001.8,N
1543307215.7,286046999.7,N
1543307235.5,286047003.5,N
1543307255.3,286047009.2,Y
1543307275.2,286047002.1,P
1543307295.0,286047001.9,N
1543307295.9,286047001.9,N
1543307315.8,286047000.4,N
1543307335.6,286047001.3,N
1543307355.4,286047000.2,N
1543307375.3,286047000.3,N
1543307395.1,286046999.9,N
1543307415.8,286047002.9,N
1543307435.7,286047003.8,N
1543307455.5,286047002.8,N
1543307475.4,286047000.5,N
1543307495.2,286047001.1,N
1543307515.0,286046997.3,N
1543307515.9,286046997.3,N
1543307535.8,286046996.9,N
1543307555.6,286046999.9,N
1543307575.5,286047003.7,N
1543307595.3,286047004.2,N
1543307615.1,286047001.8,N
1543307635.9,286047001.6,N
1543307655.7,286047003.1,N
1543307675.5,286047003.4,N
1543307695.4,286047003.6,N
1543307715.2,286047003.1,N
1543307735.1,286047004.0,N
1543307736.0,286047004.0,N
1543307755.8,286047001.6,N
1543307775.6,286047005.4,N
1543307795.5,286047006.9,Y
1543307815.3,286047006.3,P
1543307835.2,286047006.3,N
1543307855.9,286047010.2,P
1543307875.7,286047009.0,Y
1543307895.6,286047001.8,P
1543307915.4,286047001.9,N
1543307935.2,286047004.0,N
1543307955.1,286047002.0,N
1543307956.0,286047002.0,N
1543307975.8,286047002.8,N
1543307995.7,286047000.0,N
1543308015.5,286047002.4,N
1543308035.3,286046998.1,N
1543308055.2,286046997.5,N
1543308075.0,286046994.0,N
1543308075.9,286046994.0,N
1543308095.8,286046994.0,N
1543308115.6,286046992.6,N
1543308135.4,286046993.2,N
1543308155.3,286046993.3,N
1543308175.1,286046994.3,N
1543308195.8,286046997.1,N
1543308215.7,286046996.9,N
1543308235.5,286046999.6,N
1543308255.4,286046997.5,N
1543308275.2,286046993.3,N
1543308295.0,286046995.9,N
1543308295.9,286046995.9,N
1543308315.8,286046997.6,N
1543308335.6,286046997.2,N
1543308355.5,286046998.4,N
1543308375.3,286047002.0,N
1543308395.1,286047000.3,N
1543308415.9,286046998.7,N
1543308435.7,286047001.1,N
1543308455.5,286047004.3,N
1543308475.4,286047005.1,N
1543308495.2,286047007.4,N
1543308515.1,286047002.5,N
1543308516.0,286047002.5,N
1543308535.8,286047001.9,N
1543308555.6,286047003.3,N
1543308575.5,286047008.8,N
1543308595.3,286047010.2,N
1543308615.2,286047008.4,N
1543308635.9,286047006.2,N
1543308655.7,286047008.4,N
1543308675.6,286047006.2,N
1543308695.4,286047007.2,N
1543308715.3,286047006.1,N
1543308735.1,286047003.4,N
1543308736.0,286047003.4,N
1543308755.8,286047002.7,N
1543308775.7,286047001.2,N
1543308795.5,286046998.6,N
1543308815.3,286046999.1,N
1543308835.2,286046998.3,N
1543308855.0,286046998.3,N
1543308855.9,286046998.3,N
1543308875.8,286047001.1,N
1543308895.6,286046999.6,N
1543308915.4,286047000.7,N
1543308935.3,286047000.9,N
1543308955.1,286047002.8,N
1543308975.9,286047002.7,N
1543308995.7,286047002.7,N
1543309015.5,286046999.7,N
1543309035.4,286046999.8,N
1543309055.2,286047000.6,N
1543309075.0,286047002.3,N
1543309075.9,286047002.3,N
1543309095.8,286047002.8,N
1543309115.6,286046999.7,N
1543309135.4,286047000.6,N
1543309155.3,286046998.2,N
1543309175.1,286047002.3,N
1543309195.9,286047004.3,N
